Regional Weather Roundup
Issued by NWS

Home | Current Version | Previous Version | Graphics & Text | Print | Product List | Glossary Off
Versions: 1 2 3 4 5 6 7 8 9 10 11 12 13 14 15 16 17 18 19 20 21 22 23 24 25 26 27 28 29 30 31 32 33 34 35 36 37 38 39 40 41 42 43 44 45 46 47 48 49 50

000
ASUS43 KDMX 012107
RWRIA

WEATHER ROUNDUP FOR IOWA
NATIONAL WEATHER SERVICE DES MOINES IA
400 PM CDT SAT AUG 01 2015

NOTE: "FAIR" INDICATES FEW OR NO CLOUDS BELOW 12,000 FEET WITH NO
SIGNIFICANT WEATHER AND/OR OBSTRUCTIONS TO VISIBILITY.

* - THESE STATIONS ARE NOT NWS STATIONS...THUS NOT UNDER NWS
QUALITY CONTROL.  THEY ALSO DO NOT REPORT WEATHER SUCH
AS PRECIPITATION OR FOG.

IAZ001>003-012>014-020>022-031>034-043>046-012200-
   NORTHWEST IOWA

CITY           SKY/WX    TMP DP  RH WIND       PRES   REMARKS
CARROLL *      SUNNY     82  70  65 W5        29.96F HX  86
CHEROKEE *     CLOUDY    81  68  65 SW7       29.94F HX  83
DENISON *      SUNNY     81  72  74 SW6       29.95F HX  84
LE MARS *      SUNNY     81  66  61 SW6G14    29.94F HX  83
ORANGE CITY *  SUNNY     81  63  54 W9        29.95F HX  82
SHELDON *      SUNNY     82  66  57 SW13G20   29.94S HX  85
SIOUX CITY     CLOUDY    80  66  62 SW6       29.96R HX  82
SPENCER        CLOUDY    83  66  56 SW7       29.94F HX  85
STORM LAKE *   SUNNY     81  68  65 SW6       29.96F HX  83
$$

IAZ055>058-069>071-079>083-090>094-012200-
   SOUTHWEST IOWA

CITY           SKY/WX    TMP DP  RH WIND       PRES   REMARKS
ATLANTIC *     SUNNY     82  70  65 SW9       29.98S HX  86
AUDUBON *      SUNNY     82  73  74 SW7       29.98F HX  88
CLARINDA *     SUNNY     86  72  62 SW6       29.99F HX  92
COUNCIL BLFS *   N/A     79  70  73 SW6       30.00S HX  81
CRESTON *      SUNNY     82  73  74 S7        29.99F HX  88
HARLAN  *      SUNNY     81  77  89 SW7       30.02S HX  88
LAMONI         MOSUNNY   86  71  60 SW3       29.98F HX  91
RED OAK *      SUNNY     82  72  69 W7        29.99S HX  87
SHENANDOAH *   SUNNY     84  73  70 SW6       29.99F HX  91
$$

IAZ047>049-059>061-072>074-084-012200-
   CENTRAL IOWA

CITY           SKY/WX    TMP DP  RH WIND       PRES   REMARKS
AMES           PTSUNNY   85  69  58 W5        29.95F HX  89
ANKENY *       SUNNY     86  68  54 W5        29.95F HX  89
CHARITON *     SUNNY     86  72  62 VRB5      29.97F HX  92
DES MOINES     CLOUDY    87  70  56 SW7       29.95F HX  92
GRINNELL*      PTSUNNY   84  68  58 SW8       29.97F HX  87
KNOXVILLE *    SUNNY     86  70  58 SW3       29.95F HX  90
MARSHALLTOWN   CLOUDY    85  71  63 W7        29.96F HX  90
PELLA *        MOSUNNY   88  75  66 W5        29.97F HX  97
PERRY *          N/A     86  73  66 CALM      29.94F HX  93
$$

IAZ004>006-015-016-023>025-035-036-012200-
   NORTH CENTRAL IOWA

CITY           SKY/WX    TMP DP  RH WIND       PRES   REMARKS
ALGONA *       SUNNY     82  70  65 SW7       29.95F HX  86
CLARION *      SUNNY     82  70  65 W8        29.96F HX  86
ESTHERVILLE    PTSUNNY   83  66  56 W9        29.94F HX  85
FORT DODGE *   CLOUDY    84  68  58 W5        29.96F HX  87
MASON CITY     PTSUNNY   85  68  56 SW12      29.96F HX  88
FOREST CITY *  SUNNY     82  68  61 SW8       29.95F HX  85
IOWA FALLS *     N/A     84  70  61 W7        29.97F HX  88
$$

IAZ007>011-017>019-026>030-037>042-050>054-066-012200-
   NORTHEAST IOWA

CITY           SKY/WX    TMP DP  RH WIND       PRES   REMARKS
CEDAR RAPIDS   PTSUNNY   84  73  69 SW9       29.96F HX  90
CHARLES CITY * SUNNY     84  70  61 W9        29.96F HX  88
CLINTON *      PTSUNNY   84  64  51 W16       29.98F HX  86
DECORAH *      SUNNY     82  64  54 VRB6      29.94F HX  84
DUBUQUE        PTSUNNY   84  70  62 W10       29.95F HX  88
MONTICELLO *   SUNNY     84  70  61 W13       29.94F HX  88
OELWEIN *      MOSUNNY   82  70  65 W8        29.96F HX  86
WATERLOO       PTSUNNY   84  71  65 W9        29.94F HX  89
$$

IAZ064-065-067-068-078-012200-
   EAST CENTRAL IOWA

CITY           SKY/WX    TMP DP  RH WIND       PRES   REMARKS
DAVENPORT      PTSUNNY   83  64  52 W12G17    29.97F HX  84
IOWA CITY      MOSUNNY   85  68  56 SW8       29.97F HX  88
MT. PLEASANT * MOSUNNY   88  63  42 SW5       29.98F HX  88
MUSCATINE *    SUNNY     88  64  45 SW12      29.96F HX  89
QUAD CITIES    PTSUNNY   87  63  44 W9        29.96F HX  88
$$

IAZ062-063-075>077-085>089-095>099-012200-
   SOUTHEAST IOWA

CITY           SKY/WX    TMP DP  RH WIND       PRES   REMARKS
BURLINGTON     MOSUNNY   85  66  53 VRB3      29.98F HX  87
FAIRFIELD *    SUNNY     86  68  54 VRB6      29.97F HX  89
FORT MADISON * SUNNY     84  72  65 SW3       29.98F HX  89
KEOKUK *       MOSUNNY   86  73  66 S7        29.96F HX  93
OSKALOOSA *      N/A     86  72  62 W7        29.97F HX  92
CENTERVILLE *  SUNNY     88  73  62 W3        29.99F HX  96
OTTUMWA        SUNNY     85  72  65 W8        29.95F HX  91
WASHINGTON *   SUNNY     84  70  61 W9        29.98F HX  88
$$

ABBREVIATIONS USED IN REMARKS
   TC - TEMPERATURES IN CELSIUS
  WCI - WIND CHILL INDEX
   HX - HEAT INDEX
  VSB - VISIBILITY
$$



USA.gov is the U.S. government's official web portal to all federal, state and local government web resources and services.